Location: Kermapucano
(48.0667°N, 3.3000°W)
Time: 19:20:40
(UTC+00:00)

Lacrosse 5 - Pass Details

Date: 29 November 2020
Orbit: 713 x 726 km, 57.0° (Epoch: 23 January)

Event Time Altitude Azimuth Distance (km) Brightness Sun altitude
Exits shadow 06:11:21 19° 260° (W) 1,683 3.2 -14.3°
Maximum altitude 06:14:53 53° 332° (NNW) 872 2.0 -13.7°
Drops below altitude 10° 06:19:50 10° 50° (NE) 2,199 4.8 -12.9°
Sets 06:22:17 0° 55° (NE) 3,122 5.7 -12.6°
